EDT,Max TemperatureF,Mean TemperatureF,Min TemperatureF,Max Dew PointF,MeanDew PointF,Min DewpointF,Max Humidity, Mean Humidity, Min Humidity, Max Sea Level PressureIn, Mean Sea Level PressureIn, Min Sea Level PressureIn, Max VisibilityMiles, Mean VisibilityMiles, Min VisibilityMiles, Max Wind SpeedMPH, Mean Wind SpeedMPH, Max Gust SpeedMPH,PrecipitationIn, CloudCover, Events, WindDirDegrees
2013-3-1,30,27,24,27,22,19,88,82,74,30.05,29.97,29.87,10,4,1,15,12,21,0.00,8,Snow,348
2013-3-2,27,26,23,22,20,18,88,82,71,30.04,29.99,29.95,10,4,1,16,9,21,0.02,8,Snow,348
2013-3-3,25,22,19,19,17,14,93,81,68,30.07,30.00,29.96,10,5,1,14,9,,0.01,8,Snow,302
2013-3-4,34,22,10,24,18,9,92,75,56,30.17,30.12,30.07,10,10,5,8,4,,0.00,1,,308
2013-3-5,39,30,21,24,21,16,84,62,47,30.12,29.89,29.65,10,10,8,17,7,,0.00,4,,95
2013-3-6,41,36,28,30,28,25,93,83,60,30.19,29.88,29.63,10,6,1,22,13,26,0.05,7,Snow,43
2013-3-7,37,34,30,30,29,26,100,86,70,30.38,30.29,30.18,10,5,1,13,8,,0.03,8,Snow,341
2013-3-8,39,30,21,30,25,20,92,81,65,30.49,30.43,30.36,10,9,5,15,9,18,0.00,3,,5
2013-3-9,51,37,23,34,28,21,100,76,50,30.43,30.31,30.13,10,7,2,12,3,,0.00,1,,144
2013-3-10,66,54,42,39,36,31,65,52,36,30.11,30.01,29.89,10,10,9,17,9,21,0.02,2,Rain,175
2013-3-11,57,50,41,47,42,35,93,78,45,29.89,29.74,29.60,10,8,2,26,12,38,0.86,8,Rain,214
2013-3-12,39,37,32,34,29,25,85,77,70,30.00,29.90,29.76,10,10,8,18,13,28,0.00,8,,261
2013-3-13,30,27,24,28,23,19,93,82,64,30.22,30.02,29.90,10,5,0,24,12,31,0.01,7,Fog-Snow,277
2013-3-14,37,28,21,23,20,15,81,71,59,30.28,30.23,30.15,10,10,10,18,10,24,0.00,2,,277
2013-3-15,45,36,28,37,29,22,100,78,65,30.14,29.96,29.85,10,8,2,15,7,21,0.03,5,Rain,254
2013-3-16,37,32,28,36,31,24,100,91,82,30.04,29.81,29.67,10,5,1,16,9,,0.02,8,Rain,28
2013-3-17,33,30,28,27,23,19,93,77,60,30.22,30.13,30.02,10,10,8,12,6,,0.00,6,,20
2013-3-18,46,37,28,45,34,20,100,91,69,30.15,29.76,29.59,10,5,2,20,13,32,0.47,7,Rain,145
2013-3-19,37,32,26,31,21,17,82,69,59,30.00,29.84,29.72,10,10,5,28,20,37,0.00,6,Rain-Snow,264
2013-3-20,32,26,19,22,19,14,88,73,58,30.00,29.92,29.87,10,6,0,21,13,26,0.00,6,Fog-Snow,281
2013-3-21,28,22,15,21,16,9,80,73,66,29.96,29.91,29.86,10,8,2,20,11,24,0.00,6,Snow,285
2013-3-22,37,30,24,22,19,16,78,67,54,30.04,29.99,29.93,10,10,8,16,11,24,0.00,5,Snow,284
2013-3-23,42,30,19,26,22,17,89,70,51,30.08,30.05,30.01,10,9,5,9,4,,0.00,1,,334
2013-3-24,34,29,24,24,22,21,88,71,59,30.00,29.78,29.48,10,10,10,20,11,23,0.00,4,,68
2013-3-25,35,32,30,31,30,27,100,91,80,29.85,29.54,29.40,7,2,0,15,11,,0.28,8,Fog-Snow,36
2013-3-26,41,34,30,30,29,27,93,83,63,30.13,30.00,29.82,10,9,1,17,11,24,0.00,8,Snow,316
2013-3-27,42,36,30,30,28,26,100,81,58,30.21,30.14,30.09,10,7,1,18,11,26,0.01,7,Snow,290
2013-3-28,44,37,30,30,27,24,79,67,53,30.29,30.25,30.19,10,10,10,16,11,21,0.00,8,,305
2013-3-29,50,39,30,29,27,25,85,63,42,30.30,30.26,30.22,10,10,9,15,7,22,0.00,2,,290
2013-3-30,54,39,25,30,26,21,92,63,34,30.27,30.17,30.00,10,9,4,12,2,16,0.00,0,,212
2013-3-31,50,43,36,45,37,27,93,77,58,29.98,29.79,29.70,10,9,6,14,5,22,0.03,5,Rain,221